KZR991 UAAA-UACC

Flight info

Callsign KZR991
Flight time N/A
Altitude 36000
Route ETEDA1B ETEDA W333 BANOS BANOS1D
Aircraft A20N/M-SDE2E3FGHIRWXY/LB1

Departure

Time 2026-04-26 06:23
Airport Almaty International Airport (UAAA)

Arrival

Time N/A
Airport Nursultan Nazarbayev International Airport (UACC)
Time Latitude Longitude Altitude Speed Heading
2026-04-26 06:13 43.34772 77.01382 2253 ft 2 kts 224°
2026-04-26 06:13 43.34783 77.01396 2253 ft 2 kts 224°
2026-04-26 06:14 43.34792 77.01412 2253 ft 2 kts 240°
2026-04-26 06:14 43.34795 77.01421 2253 ft 1 kts 246°
2026-04-26 06:14 43.34796 77.01424 2253 ft 0 kts 246°
2026-04-26 06:18 43.34794 77.01418 2253 ft 1 kts 248°
2026-04-26 06:18 43.34787 77.01409 2253 ft 2 kts 213°
2026-04-26 06:18 43.34771 77.01399 2253 ft 3 kts 196°
2026-04-26 06:19 43.34746 77.01402 2253 ft 4 kts 166°
2026-04-26 06:19 43.34707 77.01421 2254 ft 7 kts 157°
2026-04-26 06:19 43.34656 77.01452 2254 ft 8 kts 158°
2026-04-26 06:19 43.34598 77.01466 2254 ft 8 kts 173°
2026-04-26 06:20 43.34537 77.01495 2254 ft 9 kts 155°
2026-04-26 06:20 43.34472 77.01536 2254 ft 10 kts 156°
2026-04-26 06:20 43.34403 77.01578 2254 ft 11 kts 157°
2026-04-26 06:20 43.34306 77.01641 2255 ft 12 kts 155°
2026-04-26 06:21 43.34254 77.01673 2255 ft 12 kts 156°
2026-04-26 06:21 43.34179 77.01732 2255 ft 12 kts 133°
2026-04-26 06:21 43.34169 77.01839 2255 ft 12 kts 62°
2026-04-26 06:21 43.34188 77.01878 2255 ft 0 kts 56°
2026-04-26 06:22 43.34327 77.02158 2256 ft 70 kts 54°
2026-04-26 06:22 43.34721 77.02948 2257 ft 130 kts 57°
2026-04-26 06:22 43.35323 77.04173 2289 ft 174 kts 55°
2026-04-26 06:23 43.36011 77.05566 2797 ft 178 kts 55°
2026-04-26 06:23 43.36727 77.06953 3457 ft 178 kts 53°
2026-04-26 06:23 43.37455 77.08297 4122 ft 178 kts 54°
2026-04-26 06:23 43.38216 77.09719 4533 ft 194 kts 54°
2026-04-26 06:24 43.39018 77.11247 4977 ft 207 kts 54°
2026-04-26 06:24 43.39870 77.12909 5438 ft 220 kts 56°
2026-04-26 06:24 43.40752 77.14708 5878 ft 235 kts 56°
2026-04-26 06:24 43.41950 77.16409 6181 ft 259 kts 30°
2026-04-26 06:25 43.43706 77.17117 6606 ft 278 kts 359°
2026-04-26 06:25 43.45595 77.16426 7256 ft 286 kts 332°
2026-04-26 06:25 43.47326 77.15122 8014 ft 289 kts 331°
2026-04-26 06:25 43.49117 77.13823 8577 ft 291 kts 332°
2026-04-26 06:26 43.50919 77.12538 8949 ft 292 kts 332°
2026-04-26 06:26 43.52697 77.11189 9144 ft 292 kts 322°
2026-04-26 06:26 43.53988 77.09092 9195 ft 290 kts 291°
2026-04-26 06:26 43.54386 77.06381 9513 ft 295 kts 270°
2026-04-26 06:27 43.54431 77.03573 10333 ft 295 kts 270°
2026-04-26 06:27 43.54507 77.00767 11031 ft 301 kts 271°
2026-04-26 06:27 43.54629 76.97823 11424 ft 317 kts 276°
2026-04-26 06:27 43.55282 76.94907 12052 ft 326 kts 296°
2026-04-26 06:28 43.56622 76.92394 12852 ft 330 kts 311°
2026-04-26 06:28 43.58223 76.90117 13578 ft 333 kts 313°
2026-04-26 06:28 43.59862 76.87831 14238 ft 337 kts 312°
2026-04-26 06:28 43.61514 76.85513 14967 ft 340 kts 312°
2026-04-26 06:29 43.63150 76.83200 15630 ft 343 kts 312°
2026-04-26 06:29 43.64819 76.80823 16297 ft 346 kts 311°
2026-04-26 06:29 43.66487 76.78441 16972 ft 349 kts 311°
2026-04-26 06:29 43.68720 76.75243 17844 ft 353 kts 311°
2026-04-26 06:30 43.69866 76.73598 18270 ft 354 kts 311°
2026-04-26 06:30 43.71562 76.71160 18903 ft 357 kts 311°
2026-04-26 06:30 43.73282 76.68691 19560 ft 359 kts 311°
2026-04-26 06:30 43.75005 76.66204 20184 ft 360 kts 310°
2026-04-26 06:31 43.76693 76.63654 20837 ft 362 kts 310°
2026-04-26 06:31 43.78395 76.61037 21443 ft 365 kts 309°
2026-04-26 06:31 43.80087 76.58432 22023 ft 367 kts 310°
2026-04-26 06:31 43.81796 76.55808 22624 ft 370 kts 310°
2026-04-26 06:32 43.83514 76.53175 23220 ft 372 kts 310°
2026-04-26 06:32 43.85234 76.50547 23787 ft 375 kts 311°
2026-04-26 06:32 43.87302 76.48274 24272 ft 383 kts 330°
2026-04-26 06:32 43.89846 76.47141 24779 ft 392 kts 351°
2026-04-26 06:33 43.92572 76.47281 25268 ft 400 kts 11°
2026-04-26 06:33 43.95197 76.48553 25771 ft 404 kts 20°
2026-04-26 06:33 43.97811 76.50065 26257 ft 406 kts 20°
2026-04-26 06:33 44.00389 76.51554 26700 ft 409 kts 20°
2026-04-26 06:34 44.03056 76.53072 27163 ft 411 kts 20°
2026-04-26 06:34 44.05668 76.54543 27605 ft 413 kts 20°
2026-04-26 06:34 44.08336 76.56040 28032 ft 415 kts 19°
2026-04-26 06:34 44.11009 76.57530 28442 ft 416 kts 18°
2026-04-26 06:35 44.13797 76.58626 28825 ft 414 kts
2026-04-26 06:35 44.17605 76.58852 29320 ft 411 kts 352°
2026-04-26 06:35 44.19475 76.58456 29554 ft 410 kts 346°
2026-04-26 06:35 44.22247 76.57556 29906 ft 411 kts 343°
2026-04-26 06:36 44.25024 76.56583 30225 ft 413 kts 343°
2026-04-26 06:36 44.27815 76.55615 30529 ft 415 kts 344°
2026-04-26 06:36 44.30596 76.54663 30815 ft 417 kts 343°
2026-04-26 06:36 44.33400 76.53559 31118 ft 417 kts 340°
2026-04-26 06:37 44.36118 76.52255 31424 ft 417 kts 337°
2026-04-26 06:37 44.38815 76.50750 31795 ft 415 kts 335°
2026-04-26 06:37 44.41450 76.49218 32198 ft 413 kts 335°
2026-04-26 06:37 44.44094 76.47669 32602 ft 411 kts 335°
2026-04-26 06:38 44.46731 76.46121 32963 ft 409 kts 335°
2026-04-26 06:38 44.49360 76.44579 33306 ft 408 kts 335°
2026-04-26 06:38 44.51937 76.43066 33633 ft 407 kts 335°
2026-04-26 06:38 44.54573 76.41521 33954 ft 406 kts 334°
2026-04-26 06:39 44.57158 76.40001 34288 ft 405 kts 334°
2026-04-26 06:39 44.59740 76.38483 34595 ft 405 kts 334°
2026-04-26 06:39 44.62330 76.36958 34835 ft 406 kts 334°
2026-04-26 06:39 44.64941 76.35420 35050 ft 407 kts 334°
2026-04-26 06:40 44.67548 76.33881 35281 ft 408 kts 334°
2026-04-26 06:40 44.70148 76.32348 35527 ft 408 kts 334°
2026-04-26 06:40 44.72774 76.30798 35766 ft 409 kts 333°
2026-04-26 06:40 44.75404 76.29243 35990 ft 409 kts 334°
2026-04-26 06:41 44.78004 76.27705 36030 ft 410 kts 333°
2026-04-26 06:41 44.83265 76.24587 36035 ft 411 kts 333°
2026-04-26 06:42 44.88535 76.21458 36033 ft 411 kts 333°
2026-04-26 06:42 44.93785 76.18336 36031 ft 411 kts 333°
2026-04-26 06:43 44.99058 76.15193 36026 ft 412 kts 333°
2026-04-26 06:43 45.04307 76.12057 36026 ft 412 kts 333°
2026-04-26 06:44 45.09569 76.08907 36026 ft 412 kts 333°
2026-04-26 06:44 45.14850 76.05742 36024 ft 412 kts 333°
2026-04-26 06:45 45.20110 76.02580 36024 ft 413 kts 333°
2026-04-26 06:45 45.25372 75.99409 36024 ft 414 kts 333°
2026-04-26 06:46 45.30654 75.96223 36021 ft 414 kts 333°
2026-04-26 06:46 45.35957 75.93018 36023 ft 414 kts 333°
2026-04-26 06:47 45.41244 75.89815 36019 ft 414 kts 333°
2026-04-26 06:47 45.46532 75.86607 36015 ft 414 kts 332°
2026-04-26 06:48 45.51819 75.83386 36018 ft 415 kts 332°
2026-04-26 06:48 45.57116 75.80157 36014 ft 415 kts 332°
2026-04-26 06:49 45.62412 75.76920 36008 ft 416 kts 332°
2026-04-26 06:49 45.67703 75.73677 36008 ft 416 kts 332°
2026-04-26 06:50 45.73022 75.70417 36013 ft 416 kts 332°
2026-04-26 06:50 45.78328 75.67168 36009 ft 416 kts 332°
2026-04-26 06:51 45.83630 75.63910 36007 ft 417 kts 332°
2026-04-26 06:51 45.91643 75.58965 36005 ft 418 kts 332°
2026-04-26 06:52 45.96951 75.55682 36005 ft 418 kts 332°
2026-04-26 06:52 46.02304 75.52361 35999 ft 419 kts 332°
2026-04-26 06:53 46.07646 75.49042 35997 ft 420 kts 332°
2026-04-26 06:53 46.12987 75.45714 35995 ft 420 kts 332°
2026-04-26 06:54 46.18303 75.42394 35995 ft 420 kts 332°
2026-04-26 06:54 46.23690 75.39027 35989 ft 421 kts 332°
2026-04-26 06:55 46.29067 75.35697 35984 ft 422 kts 332°
2026-04-26 06:55 46.34447 75.32355 35985 ft 421 kts 331°
2026-04-26 06:56 46.39789 75.29022 35980 ft 422 kts 331°
2026-04-26 06:56 46.45166 75.25664 35981 ft 422 kts 331°
2026-04-26 06:57 46.50560 75.22283 36022 ft 423 kts 331°
2026-04-26 06:57 46.55961 75.18891 35987 ft 423 kts 331°
2026-04-26 06:58 46.61330 75.15511 35980 ft 423 kts 331°
2026-04-26 06:58 46.66725 75.12109 35717 ft 423 kts 331°
2026-04-26 06:59 46.69421 75.10404 35868 ft 425 kts 331°
2026-04-26 06:59 46.72118 75.08697 35932 ft 426 kts 331°
2026-04-26 06:59 46.77568 75.05243 35975 ft 426 kts 331°
2026-04-26 07:00 46.82997 75.01794 35983 ft 426 kts 331°
2026-04-26 07:00 46.88431 74.98368 35987 ft 428 kts 333°
2026-04-26 07:01 46.93998 74.95264 35990 ft 429 kts 334°
2026-04-26 07:01 46.99575 74.92214 35992 ft 429 kts 334°
2026-04-26 07:02 47.05153 74.89143 35989 ft 430 kts 334°
2026-04-26 07:02 47.10698 74.86077 35993 ft 430 kts 334°
2026-04-26 07:03 47.16313 74.82964 35991 ft 430 kts 334°
2026-04-26 07:03 47.21907 74.79856 35994 ft 432 kts 333°
2026-04-26 07:04 47.27481 74.76752 35991 ft 431 kts 333°
2026-04-26 07:04 47.33105 74.73608 35995 ft 431 kts 333°
2026-04-26 07:05 47.38679 74.70488 35996 ft 431 kts 333°
2026-04-26 07:05 47.44246 74.67364 35994 ft 432 kts 333°
2026-04-26 07:06 47.49876 74.64194 35993 ft 432 kts 333°
2026-04-26 07:06 47.55459 74.61053 35993 ft 432 kts 333°
2026-04-26 07:07 47.61084 74.57911 35992 ft 433 kts 333°
2026-04-26 07:07 47.66682 74.54775 35994 ft 434 kts 333°
2026-04-26 07:08 47.72319 74.51605 35991 ft 434 kts 333°
2026-04-26 07:08 47.77934 74.48440 35987 ft 435 kts 333°
2026-04-26 07:09 47.83597 74.45239 35984 ft 434 kts 333°
2026-04-26 07:09 47.89222 74.42052 35978 ft 434 kts 333°
2026-04-26 07:11 48.03321 74.34047 35990 ft 435 kts 332°
2026-04-26 07:11 48.08951 74.30808 35983 ft 435 kts 331°
2026-04-26 07:12 48.14603 74.27557 35976 ft 435 kts 332°
2026-04-26 07:12 48.20229 74.24374 35977 ft 437 kts 332°
2026-04-26 07:13 48.25886 74.21176 35981 ft 436 kts 332°
2026-04-26 07:13 48.31568 74.17953 35976 ft 436 kts 331°
2026-04-26 07:14 48.37235 74.14724 35967 ft 436 kts 331°
2026-04-26 07:14 48.42887 74.11497 35967 ft 438 kts 331°
2026-04-26 07:15 48.48569 74.08245 35956 ft 437 kts 331°
2026-04-26 07:15 48.54236 74.04995 35959 ft 437 kts 331°
2026-04-26 07:16 48.59929 74.01720 35955 ft 437 kts 331°
2026-04-26 07:16 48.65566 73.98470 35948 ft 438 kts 331°
2026-04-26 07:17 48.71262 73.95177 35943 ft 440 kts 331°
2026-04-26 07:17 48.76937 73.91892 35933 ft 440 kts 330°
2026-04-26 07:18 48.82648 73.88576 35933 ft 440 kts 330°
2026-04-26 07:18 48.88354 73.85255 35935 ft 440 kts 331°
2026-04-26 07:19 48.94045 73.81936 35929 ft 440 kts 330°
2026-04-26 07:19 48.99767 73.78585 35925 ft 441 kts 330°
2026-04-26 07:20 49.05477 73.75228 35912 ft 443 kts 330°
2026-04-26 07:20 49.11176 73.71864 35897 ft 442 kts 330°
2026-04-26 07:21 49.16898 73.68478 35891 ft 443 kts 330°
2026-04-26 07:21 49.22652 73.65073 35890 ft 443 kts 330°
2026-04-26 07:22 49.28349 73.61691 35877 ft 442 kts 330°
2026-04-26 07:22 49.34098 73.58266 35867 ft 442 kts 330°
2026-04-26 07:23 49.39792 73.54861 35858 ft 442 kts 330°
2026-04-26 07:23 49.45493 73.51443 35853 ft 441 kts 330°
2026-04-26 07:24 49.51203 73.48013 35845 ft 439 kts 330°
2026-04-26 07:24 49.56854 73.44604 35833 ft 440 kts 330°
2026-04-26 07:25 49.62501 73.41143 35822 ft 436 kts 328°
2026-04-26 07:25 49.67866 73.36877 35616 ft 435 kts 320°
2026-04-26 07:25 49.70390 73.34322 35301 ft 431 kts 315°
2026-04-26 07:26 49.72770 73.31535 34792 ft 427 kts 311°
2026-04-26 07:26 49.74994 73.28536 34090 ft 427 kts 308°
2026-04-26 07:26 49.77157 73.25421 33429 ft 427 kts 307°
2026-04-26 07:26 49.79309 73.22290 32803 ft 427 kts 307°
2026-04-26 07:27 49.81445 73.19181 32128 ft 429 kts 307°
2026-04-26 07:27 49.83632 73.16004 31463 ft 429 kts 308°
2026-04-26 07:27 49.85784 73.12883 30781 ft 431 kts 308°
2026-04-26 07:27 49.87952 73.09740 30226 ft 428 kts 308°
2026-04-26 07:28 49.90126 73.06591 29725 ft 425 kts 307°
2026-04-26 07:28 49.92262 73.03490 29215 ft 422 kts 307°
2026-04-26 07:28 49.94402 73.00382 28724 ft 419 kts 307°
2026-04-26 07:28 49.96489 72.97344 28245 ft 416 kts 307°
2026-04-26 07:29 49.98598 72.94268 27747 ft 413 kts 307°
2026-04-26 07:29 50.00660 72.91258 27313 ft 409 kts 307°
2026-04-26 07:29 50.02720 72.88246 26822 ft 407 kts 307°
2026-04-26 07:29 50.04765 72.85249 26341 ft 404 kts 307°
2026-04-26 07:30 50.06788 72.82281 25900 ft 401 kts 307°
2026-04-26 07:30 50.08799 72.79330 25436 ft 399 kts 307°
2026-04-26 07:30 50.10802 72.76383 24959 ft 397 kts 307°
2026-04-26 07:30 50.12800 72.73444 24505 ft 393 kts 306°
2026-04-26 07:31 50.14763 72.70557 24052 ft 390 kts 306°
2026-04-26 07:31 50.16726 72.67680 23589 ft 389 kts 308°
2026-04-26 07:31 50.18828 72.65035 23119 ft 394 kts 314°
2026-04-26 07:31 50.21152 72.62724 22700 ft 399 kts 321°
2026-04-26 07:32 50.23611 72.60704 22260 ft 399 kts 323°
2026-04-26 07:32 50.26081 72.58778 21824 ft 397 kts 324°
2026-04-26 07:32 50.28542 72.56868 21366 ft 395 kts 323°
2026-04-26 07:32 50.31001 72.54948 20916 ft 393 kts 324°
2026-04-26 07:33 50.33403 72.53062 20494 ft 391 kts 323°
2026-04-26 07:33 50.35812 72.51160 20075 ft 388 kts 323°
2026-04-26 07:33 50.38224 72.49249 19654 ft 386 kts 323°
2026-04-26 07:33 50.40614 72.47353 19208 ft 384 kts 323°
2026-04-26 07:34 50.42978 72.45470 18762 ft 382 kts 323°
2026-04-26 07:34 50.45329 72.43593 18304 ft 381 kts 323°
2026-04-26 07:34 50.47686 72.41715 17877 ft 379 kts 323°
2026-04-26 07:34 50.50018 72.39855 17458 ft 377 kts 323°
2026-04-26 07:35 50.52345 72.37995 17000 ft 377 kts 323°
2026-04-26 07:35 50.54665 72.36134 16543 ft 377 kts 323°
2026-04-26 07:35 50.56979 72.34278 16062 ft 377 kts 322°
2026-04-26 07:35 50.59319 72.32400 15612 ft 377 kts 322°
2026-04-26 07:36 50.61651 72.30527 15168 ft 375 kts 323°
2026-04-26 07:36 50.63973 72.28660 14732 ft 374 kts 323°
2026-04-26 07:36 50.66267 72.26812 14296 ft 374 kts 323°
2026-04-26 07:36 50.68555 72.24966 13840 ft 374 kts 323°
2026-04-26 07:37 50.70866 72.23102 13386 ft 373 kts 324°
2026-04-26 07:37 50.73194 72.21222 12944 ft 372 kts 324°
2026-04-26 07:37 50.75485 72.19375 12522 ft 371 kts 324°
2026-04-26 07:37 50.77752 72.17542 12101 ft 369 kts 324°
2026-04-26 07:38 50.80032 72.15698 11685 ft 367 kts 325°
2026-04-26 07:38 50.82305 72.13857 11270 ft 365 kts 325°
2026-04-26 07:38 50.84527 72.12053 10889 ft 363 kts 325°
2026-04-26 07:38 50.86785 72.10216 10468 ft 360 kts 326°
2026-04-26 07:39 50.88997 72.08415 10067 ft 358 kts 326°
2026-04-26 07:39 50.91169 72.06649 9859 ft 348 kts 326°
2026-04-26 07:39 50.93259 72.04952 9775 ft 335 kts 326°
2026-04-26 07:39 50.95316 72.03278 9578 ft 327 kts 326°
2026-04-26 07:40 50.97303 72.01658 9304 ft 321 kts 325°
2026-04-26 07:40 50.99287 72.00034 8986 ft 317 kts 325°
2026-04-26 07:40 51.01246 71.98427 8557 ft 317 kts 325°
2026-04-26 07:40 51.03177 71.96843 8287 ft 312 kts 325°
2026-04-26 07:41 51.05084 71.95282 8001 ft 308 kts 325°
2026-04-26 07:41 51.06987 71.93724 7681 ft 304 kts 324°
2026-04-26 07:41 51.08863 71.92181 7280 ft 304 kts 324°
2026-04-26 07:41 51.10727 71.90648 6993 ft 299 kts 325°
2026-04-26 07:42 51.12559 71.89142 6681 ft 295 kts 324°
2026-04-26 07:42 51.14283 71.87488 6297 ft 287 kts 315°
2026-04-26 07:42 51.15749 71.85448 5989 ft 277 kts 307°
2026-04-26 07:42 51.17091 71.83292 5629 ft 274 kts 307°
2026-04-26 07:43 51.18408 71.81133 5251 ft 273 kts 307°
2026-04-26 07:43 51.19691 71.78964 5016 ft 262 kts 300°
2026-04-26 07:43 51.20293 71.76453 4948 ft 230 kts 264°
2026-04-26 07:43 51.19859 71.74171 4957 ft 213 kts 235°
2026-04-26 07:44 51.18874 71.72490 4832 ft 204 kts 224°
2026-04-26 07:44 51.17845 71.70961 4635 ft 200 kts 225°
2026-04-26 07:44 51.16838 71.69428 4440 ft 202 kts 226°
2026-04-26 07:44 51.15825 71.67862 4237 ft 203 kts 227°
2026-04-26 07:45 51.14824 71.66302 4042 ft 204 kts 227°
2026-04-26 07:45 51.13804 71.64706 3847 ft 204 kts 228°
2026-04-26 07:45 51.12802 71.63133 3602 ft 205 kts 228°
2026-04-26 07:45 51.11792 71.61546 3277 ft 206 kts 228°
2026-04-26 07:46 51.10772 71.59946 2980 ft 205 kts 228°
2026-04-26 07:46 51.09760 71.58358 2791 ft 201 kts 229°
2026-04-26 07:46 51.08772 71.56806 2785 ft 203 kts 228°
2026-04-26 07:46 51.07768 71.55234 2780 ft 204 kts 229°
2026-04-26 07:47 51.06749 71.53639 2781 ft 205 kts 229°
2026-04-26 07:47 51.05738 71.52051 2782 ft 206 kts 229°
2026-04-26 07:47 51.04723 71.50467 2780 ft 204 kts 229°
2026-04-26 07:47 51.03712 71.48883 2781 ft 206 kts 229°
2026-04-26 07:48 51.02692 71.47276 2780 ft 205 kts 229°
2026-04-26 07:48 51.01700 71.45686 2777 ft 202 kts 229°
2026-04-26 07:48 51.00707 71.44093 2773 ft 203 kts 229°
2026-04-26 07:48 50.99709 71.42487 2777 ft 203 kts 230°
2026-04-26 07:49 50.98712 71.40895 2777 ft 203 kts 229°
2026-04-26 07:49 50.97702 71.39293 2781 ft 206 kts 230°
2026-04-26 07:49 50.96690 71.37706 2782 ft 207 kts 229°
2026-04-26 07:50 50.94646 71.34528 2779 ft 206 kts 228°
2026-04-26 07:50 50.93631 71.32916 2781 ft 207 kts 229°
2026-04-26 07:50 50.92609 71.31305 2784 ft 207 kts 229°
2026-04-26 07:50 50.91583 71.29708 2789 ft 207 kts 229°
2026-04-26 07:51 50.90552 71.28103 2788 ft 207 kts 229°
2026-04-26 07:51 50.89520 71.26500 2788 ft 208 kts 229°
2026-04-26 07:51 50.88496 71.24921 2792 ft 208 kts 229°
2026-04-26 07:51 50.87449 71.23303 2792 ft 209 kts 229°
2026-04-26 07:52 50.86414 71.21700 2790 ft 209 kts 228°
2026-04-26 07:52 50.85381 71.20087 2787 ft 209 kts 229°
2026-04-26 07:52 50.84348 71.18472 2793 ft 209 kts 229°
2026-04-26 07:52 50.83315 71.16880 2793 ft 209 kts 229°
2026-04-26 07:53 50.82270 71.15278 2793 ft 211 kts 229°
2026-04-26 07:53 50.81216 71.13666 2794 ft 211 kts 229°
2026-04-26 07:53 50.80143 71.12043 2798 ft 211 kts 229°
2026-04-26 07:53 50.79095 71.10461 2798 ft 211 kts 229°
2026-04-26 07:54 50.78020 71.08838 2801 ft 211 kts 229°
2026-04-26 07:54 50.76968 71.07243 2801 ft 209 kts 229°
2026-04-26 07:54 50.75913 71.05653 2807 ft 210 kts 229°
2026-04-26 07:54 50.74862 71.04072 2810 ft 211 kts 229°
2026-04-26 07:55 50.73803 71.02487 2812 ft 212 kts 229°
2026-04-26 07:55 50.72722 71.00887 2819 ft 212 kts 229°
2026-04-26 07:55 50.71642 70.99294 2820 ft 212 kts 229°
2026-04-26 07:55 50.70575 70.97716 2820 ft 212 kts 229°
2026-04-26 07:56 50.69500 70.96129 2821 ft 211 kts 229°
2026-04-26 07:56 50.68424 70.94547 2817 ft 211 kts 229°
2026-04-26 07:56 50.67357 70.92982 2822 ft 211 kts 229°
2026-04-26 07:56 50.66264 70.91392 2823 ft 212 kts 229°
2026-04-26 07:57 50.65179 70.89812 2823 ft 213 kts 229°
2026-04-26 07:57 50.64096 70.88233 2822 ft 213 kts 229°